Location: Wiler
(46.4041°N, 7.7840°E)
Time: 10:03:38
(UTC+00:00)

Cosmos 1980 Rocket - Pass Details

Date: 09 April 2020
Orbit: 828 x 851 km, 71.0° (Epoch: 06 June)

Event Time Altitude Azimuth Distance (km) Brightness Sun altitude
Rises 21:36:43 0° 333° (NNW) 3,388 6.5 -30.0°
Reaches altitude 10° 21:39:09 10° 334° (NNW) 2,453 5.5 -30.2°
Enters shadow 21:43:55 65° 338° (NNW) 917 2.4 -30.6°
